#�ϑ�����,���ϕ���,���ϕ���,�ő啗��,�ő啗����������,�ő�u�ԕ���,�ő�u�ԕ�����������
#(�N����),(m/s)   ,(16����),(m/s)   ,(16����)        ,(m/s)       ,(16����)            
2016/12/22 0:01,1.5,4,1.5,3,2.2,4
2016/12/22 0:02,1.5,4,1.5,3,2,3
2016/12/22 0:03,1.4,3,1.5,3,1.6,3
2016/12/22 0:04,1.3,3,1.4,3,2,3
2016/12/22 0:05,1.3,3,1.3,4,1.8,3
2016/12/22 0:06,1.2,3,1.3,4,2.4,3
2016/12/22 0:07,1.3,3,1.3,4,1.6,2
2016/12/22 0:08,1.3,3,1.3,3,2.6,3
2016/12/22 0:09,1.3,3,1.3,3,2.1,3
2016/12/22 0:10,1.4,3,1.4,4,2.7,4
2016/12/22 0:11,1.5,3,1.5,4,2.6,4
2016/12/22 0:12,1.5,2,1.5,4,3.1,3
2016/12/22 0:13,1.7,3,1.7,3,3.8,3
2016/12/22 0:14,1.7,3,1.7,3,2.9,3
2016/12/22 0:15,1.7,3,1.7,3,1.9,2
2016/12/22 0:16,1.7,2,1.7,3,2.4,2
2016/12/22 0:17,1.7,2,1.7,3,2.9,2
2016/12/22 0:18,1.6,2,1.7,3,1.8,2
2016/12/22 0:19,1.7,2,1.7,3,2.9,16
2016/12/22 0:20,1.7,2,1.7,3,3.6,2
2016/12/22 0:21,1.7,2,1.7,3,2.4,3
2016/12/22 0:22,1.7,2,1.7,3,3.1,3
2016/12/22 0:23,1.6,2,1.7,3,3,3
2016/12/22 0:24,1.6,2,1.6,3,2.9,3
2016/12/22 0:25,1.7,2,1.7,3,3.1,3
2016/12/22 0:26,1.8,2,1.8,2,3,2
2016/12/22 0:27,1.8,2,1.8,2,3.1,2
2016/12/22 0:28,1.8,2,1.8,2,2.6,3
2016/12/22 0:29,1.8,3,1.8,2,1.9,3
2016/12/22 0:30,1.7,3,1.8,2,2.6,3
2016/12/22 0:31,1.8,3,1.8,2,3.5,3
2016/12/22 0:32,1.8,3,1.8,2,2.5,4
2016/12/22 0:33,1.7,3,1.8,2,2.5,3
2016/12/22 0:34,1.7,3,1.7,2,2.5,3
2016/12/22 0:35,1.7,3,1.7,2,3.6,3
2016/12/22 0:36,1.7,3,1.7,2,3,2
2016/12/22 0:37,1.8,3,1.8,2,4.1,3
2016/12/22 0:38,1.9,3,1.9,3,4.5,5
2016/12/22 0:39,2,3,2,3,3,5
2016/12/22 0:40,2,3,2.1,3,2.9,5
2016/12/22 0:41,1.9,3,2,3,2,6
2016/12/22 0:42,1.9,3,1.9,3,2.9,5
2016/12/22 0:43,2,3,2,3,3,3
2016/12/22 0:44,2.1,4,2.1,3,3.9,2
2016/12/22 0:45,2.1,4,2.1,3,3.7,3
2016/12/22 0:46,2.1,4,2.1,3,3.2,3
2016/12/22 0:47,2,4,2.1,3,2.6,4
2016/12/22 0:48,1.8,4,1.9,3,2,3
2016/12/22 0:49,1.8,4,1.8,3,2.1,3
2016/12/22 0:50,1.8,3,1.8,4,2.5,4
2016/12/22 0:51,1.9,3,1.9,4,2.7,4
2016/12/22 0:52,1.8,3,1.9,4,2.4,4
2016/12/22 0:53,1.9,3,1.9,4,3.2,2
2016/12/22 0:54,1.8,3,1.9,4,3.2,3
2016/12/22 0:55,1.7,3,1.8,4,2.9,3
2016/12/22 0:56,1.8,3,1.8,4,3.2,3
2016/12/22 0:57,1.7,3,1.7,4,1.5,3
2016/12/22 0:58,1.7,3,1.7,3,2.9,4
2016/12/22 0:59,1.9,3,1.9,3,3.7,4
2016/12/22 1:00,1.9,3,1.9,3,3.3,4
2016/12/22 1:01,1.9,3,1.9,3,2.6,3
2016/12/22 1:02,2,3,2,3,2.9,2
2016/12/22 1:03,2,3,2.1,3,3.1,3
2016/12/22 1:04,2,3,2,3,2.9,2
2016/12/22 1:05,2,3,2,3,2.5,3
2016/12/22 1:06,1.9,3,2,3,4.2,3
2016/12/22 1:07,2,3,2,3,2.7,3
2016/12/22 1:08,2,3,2.1,3,2.7,3
2016/12/22 1:09,2,3,2,3,2.9,3
2016/12/22 1:10,1.9,3,2,3,3.2,4
2016/12/22 1:11,1.8,3,1.9,3,1.9,3
2016/12/22 1:12,1.7,3,1.8,3,1.9,3
2016/12/22 1:13,1.7,3,1.7,3,4.3,3
2016/12/22 1:14,1.9,3,1.9,3,3.7,3
2016/12/22 1:15,2,3,2,3,3.8,2
2016/12/22 1:16,1.9,3,2,3,2.9,3
2016/12/22 1:17,2,3,2,3,3.9,4
2016/12/22 1:18,2.2,3,2.2,3,4.5,4
2016/12/22 1:19,2.3,3,2.3,3,3.9,3
2016/12/22 1:20,2.3,3,2.3,3,4.4,3
2016/12/22 1:21,2.3,3,2.3,3,3,2
2016/12/22 1:22,2.5,3,2.5,3,3.8,3
2016/12/22 1:23,2.4,3,2.5,3,2.5,3
2016/12/22 1:24,2.3,3,2.4,3,3.2,3
2016/12/22 1:25,2.4,3,2.4,3,3.1,3
2016/12/22 1:26,2.3,3,2.4,3,3.2,4
2016/12/22 1:27,2.4,3,2.4,3,3.5,2
2016/12/22 1:28,2.3,3,2.4,3,3.9,3
2016/12/22 1:29,2.4,3,2.4,3,3.7,3
2016/12/22 1:30,2.3,3,2.4,3,3.6,3
2016/12/22 1:31,2.3,3,2.4,3,3.7,3
2016/12/22 1:32,2.3,3,2.3,3,4.4,2
2016/12/22 1:33,2.4,3,2.4,3,3.6,4
2016/12/22 1:34,2.5,3,2.5,3,3.6,3
2016/12/22 1:35,2.6,3,2.6,3,4.2,3
2016/12/22 1:36,2.7,3,2.7,3,4.4,3
2016/12/22 1:37,2.8,3,2.8,3,5.8,3
2016/12/22 1:38,2.8,3,2.8,3,3.7,3
2016/12/22 1:39,2.7,3,2.8,3,3.9,3
2016/12/22 1:40,2.7,3,2.7,3,2.7,4
2016/12/22 1:41,2.7,3,2.7,3,3.3,4
2016/12/22 1:42,2.5,3,2.7,3,1.6,6
2016/12/22 1:43,2.5,3,2.5,3,3.6,4
2016/12/22 1:44,2.6,3,2.6,3,4.5,4
2016/12/22 1:45,2.4,3,2.5,3,3,3
2016/12/22 1:46,2.3,3,2.4,3,3.6,2
2016/12/22 1:47,2.1,3,2.3,3,4.1,2
2016/12/22 1:48,2.2,3,2.2,3,5.7,3
2016/12/22 1:49,2.4,3,2.4,3,6,3
2016/12/22 1:50,2.6,3,2.6,3,6,4
2016/12/22 1:51,2.6,3,2.6,3,4.2,3
2016/12/22 1:52,2.7,3,2.7,3,3.8,1
2016/12/22 1:53,3,3,3,3,6.5,3
2016/12/22 1:54,2.9,3,3,3,4.9,3
2016/12/22 1:55,3,3,3,3,4.5,3
2016/12/22 1:56,3.1,3,3.1,3,6.5,3
2016/12/22 1:57,3.3,3,3.3,3,7,4
2016/12/22 1:58,3.2,3,3.3,3,4.2,2
2016/12/22 1:59,3,3,3.2,3,3.7,3
2016/12/22 2:00,2.9,3,3,3,3.9,3
2016/12/22 2:01,3,3,3,3,5.2,3
2016/12/22 2:02,3.1,3,3.1,3,5.8,4
2016/12/22 2:03,3,3,3.2,3,4.1,3
2016/12/22 2:04,3,3,3,3,4.5,4
2016/12/22 2:05,3.1,3,3.1,3,5.1,2
2016/12/22 2:06,3.1,3,3.1,3,5.6,3
2016/12/22 2:07,3,2,3.1,3,5.8,4
2016/12/22 2:08,3.1,3,3.1,3,5.7,4
2016/12/22 2:09,3,3,3.1,3,4.1,3
2016/12/22 2:10,3.2,3,3.2,3,5.4,3
2016/12/22 2:11,3.2,3,3.2,3,6.1,2
2016/12/22 2:12,3.2,2,3.2,3,6,3
2016/12/22 2:13,3.1,3,3.2,3,4.3,3
2016/12/22 2:14,3.1,3,3.1,3,4.5,3
2016/12/22 2:15,3.1,3,3.1,3,4.5,4
2016/12/22 2:16,3,3,3,3,4.2,3
2016/12/22 2:17,3.1,3,3.1,3,4.8,3
2016/12/22 2:18,3.1,3,3.1,3,4.8,4
2016/12/22 2:19,3.3,3,3.3,3,4.9,4
2016/12/22 2:20,3.3,3,3.3,3,6.1,3
2016/12/22 2:21,3.2,3,3.3,3,4.5,3
2016/12/22 2:22,3.2,3,3.2,3,4.5,4
2016/12/22 2:23,3.3,3,3.3,3,5.5,3
2016/12/22 2:24,3.4,3,3.4,3,4.5,3
2016/12/22 2:25,3.3,3,3.4,3,4.3,4
2016/12/22 2:26,3.2,3,3.3,3,3.7,4
2016/12/22 2:27,3.1,3,3.2,3,3.6,2
2016/12/22 2:28,3.1,3,3.1,3,5.1,3
2016/12/22 2:29,3,3,3.1,3,4.2,3
2016/12/22 2:30,3,3,3.1,3,3.6,3
2016/12/22 2:31,2.9,3,2.9,3,4.2,3
2016/12/22 2:32,2.9,3,2.9,3,5.7,4
2016/12/22 2:33,2.9,3,2.9,3,5.6,4
2016/12/22 2:34,2.8,3,2.9,3,3.7,5
2016/12/22 2:35,2.7,3,2.8,3,3,2
2016/12/22 2:36,2.7,3,2.7,3,3.8,3
2016/12/22 2:37,2.8,3,2.8,3,3.7,4
2016/12/22 2:38,2.6,3,2.8,3,2.6,4
2016/12/22 2:39,2.5,3,2.5,3,3.1,3
2016/12/22 2:40,2.4,3,2.5,3,2.7,3
2016/12/22 2:41,2.4,3,2.4,3,4.3,3
2016/12/22 2:42,2.3,3,2.4,3,3.6,3
2016/12/22 2:43,2.2,3,2.3,3,3.8,3
2016/12/22 2:44,2.1,3,2.1,3,2.7,3
2016/12/22 2:45,2.1,3,2.1,3,2.9,4
2016/12/22 2:46,2.1,3,2.1,3,2.7,3
2016/12/22 2:47,2,3,2.1,3,3.6,3
2016/12/22 2:48,2.1,3,2.1,3,4.9,3
2016/12/22 2:49,2.1,3,2.2,3,4.2,5
2016/12/22 2:50,2.1,3,2.1,3,2.7,1
2016/12/22 2:51,2.1,3,2.2,3,2.9,4
2016/12/22 2:52,2.1,3,2.1,3,2.9,4
2016/12/22 2:53,2.1,3,2.1,3,3.8,4
2016/12/22 2:54,2.2,3,2.2,3,4.2,2
2016/12/22 2:55,2.3,3,2.3,3,3.7,3
2016/12/22 2:56,2.4,3,2.4,3,3.9,5
2016/12/22 2:57,2.5,4,2.5,4,4.2,5
2016/12/22 2:58,2.4,4,2.5,4,4.9,3
2016/12/22 2:59,2.6,4,2.6,4,7.1,4
2016/12/22 3:00,2.6,4,2.6,4,3.5,3
2016/12/22 3:01,2.7,3,2.7,3,3.8,3
2016/12/22 3:02,2.7,3,2.7,3,3.5,3
2016/12/22 3:03,2.8,3,2.8,3,4.2,4
2016/12/22 3:04,2.8,3,2.8,3,3.8,3
2016/12/22 3:05,2.9,4,2.9,4,3.5,3
2016/12/22 3:06,2.8,3,2.9,4,3.6,3
2016/12/22 3:07,2.8,3,2.8,4,4.2,3
2016/12/22 3:08,2.7,3,2.8,4,4.1,3
2016/12/22 3:09,2.6,3,2.7,4,3.5,3
2016/12/22 3:10,2.6,3,2.6,4,4.4,3
2016/12/22 3:11,2.6,3,2.6,4,3.5,3
2016/12/22 3:12,2.6,3,2.6,4,3.1,3
2016/12/22 3:13,2.6,3,2.6,4,4.1,4
2016/12/22 3:14,2.5,3,2.6,4,3.8,4
2016/12/22 3:15,2.4,3,2.5,4,3.2,4
2016/12/22 3:16,2.4,3,2.4,3,3.3,2
2016/12/22 3:17,2.4,3,2.4,3,3,3
2016/12/22 3:18,2.3,3,2.4,3,4.7,3
2016/12/22 3:19,2.5,3,2.5,3,4.1,3
2016/12/22 3:20,2.5,3,2.5,3,4.2,3
2016/12/22 3:21,2.4,3,2.5,3,3.9,3
2016/12/22 3:22,2.4,3,2.4,3,3.2,3
2016/12/22 3:23,2.5,3,2.5,3,4.5,2
2016/12/22 3:24,2.6,3,2.6,3,4.1,4
2016/12/22 3:25,2.6,3,2.7,3,3.5,4
2016/12/22 3:26,2.7,3,2.7,3,4.4,3
2016/12/22 3:27,2.8,3,2.8,3,3.7,4
2016/12/22 3:28,2.8,3,2.8,3,5.4,3
2016/12/22 3:29,2.8,3,2.9,3,5,3
2016/12/22 3:30,2.8,3,2.8,3,3.8,2
2016/12/22 3:31,2.8,3,2.8,3,4.2,3
2016/12/22 3:32,2.9,3,2.9,3,5.7,3
2016/12/22 3:33,2.9,3,2.9,3,4.2,3
2016/12/22 3:34,2.8,3,2.9,3,3.8,3
2016/12/22 3:35,2.9,3,2.9,3,5,4
2016/12/22 3:36,3,3,3,3,6.8,3
2016/12/22 3:37,3.1,3,3.1,3,5,3
2016/12/22 3:38,3,3,3.1,3,3,3
2016/12/22 3:39,3,3,3,3,5,4
2016/12/22 3:40,3.1,3,3.1,3,4.4,3
2016/12/22 3:41,3.1,3,3.1,3,5.1,3
2016/12/22 3:42,3.2,3,3.2,3,5.4,4
2016/12/22 3:43,3.2,3,3.2,3,4.2,4
2016/12/22 3:44,3.2,3,3.2,3,4.2,4
2016/12/22 3:45,3.2,3,3.2,3,5.2,3
2016/12/22 3:46,3.1,3,3.2,3,4.9,4
2016/12/22 3:47,3,3,3.1,3,4.2,3
2016/12/22 3:48,3.2,3,3.2,3,6.4,4
2016/12/22 3:49,3.1,3,3.2,3,6.2,5
2016/12/22 3:50,3.1,3,3.1,3,4.7,4
2016/12/22 3:51,3.1,3,3.2,3,4.7,3
2016/12/22 3:52,3,3,3.1,3,3.5,3
2016/12/22 3:53,3,3,3,3,4.1,4
2016/12/22 3:54,2.9,3,3,3,4.3,3
2016/12/22 3:55,3,3,3,3,4.8,3
2016/12/22 3:56,2.9,3,3,3,3.5,3
2016/12/22 3:57,2.9,3,2.9,3,4.4,2
2016/12/22 3:58,2.7,3,2.9,3,4.2,5
2016/12/22 3:59,2.7,3,2.8,3,3.9,4
2016/12/22 4:00,2.7,3,2.7,3,4.4,4
2016/12/22 4:01,2.7,3,2.7,3,3.9,3
2016/12/22 4:02,2.7,3,2.7,3,3.7,4
2016/12/22 4:03,2.7,3,2.7,3,5.1,3
2016/12/22 4:04,2.7,3,2.8,3,4.5,4
2016/12/22 4:05,2.6,3,2.7,3,4.3,4
2016/12/22 4:06,2.6,3,2.6,3,3.5,3
2016/12/22 4:07,2.5,3,2.6,3,3.6,5
2016/12/22 4:08,2.6,3,2.6,3,3.7,3
2016/12/22 4:09,2.6,3,2.6,3,3.9,3
2016/12/22 4:10,2.6,3,2.7,3,4.3,4
2016/12/22 4:11,2.7,3,2.7,3,4.2,3
2016/12/22 4:12,2.7,3,2.7,3,4.4,3
2016/12/22 4:13,2.6,3,2.7,3,4.2,4
2016/12/22 4:14,2.5,3,2.6,3,2.6,2
2016/12/22 4:15,2.6,3,2.6,3,4.2,2
2016/12/22 4:16,2.6,3,2.6,3,5.1,3
2016/12/22 4:17,2.6,3,2.6,3,3.7,4
2016/12/22 4:18,2.6,3,2.6,3,3.3,3
2016/12/22 4:19,2.5,3,2.6,3,3.7,3
2016/12/22 4:20,2.6,3,2.6,3,5,3
2016/12/22 4:21,2.5,3,2.6,3,3.7,3
2016/12/22 4:22,2.6,3,2.6,3,4.4,1
2016/12/22 4:23,2.8,3,2.8,3,6.1,3
2016/12/22 4:24,3,3,3,3,5,3
2016/12/22 4:25,3.1,3,3.1,3,5.2,3
2016/12/22 4:26,3.1,3,3.1,3,4.1,3
2016/12/22 4:27,3.1,3,3.1,3,4.2,3
2016/12/22 4:28,3.1,3,3.1,3,3.9,3
2016/12/22 4:29,3.1,3,3.2,3,5.6,3
2016/12/22 4:30,3.1,3,3.2,3,5.1,3
2016/12/22 4:31,3.2,3,3.2,3,4.9,3
2016/12/22 4:32,3.2,3,3.2,3,4.2,3
2016/12/22 4:33,3,3,3.1,3,4.5,5
2016/12/22 4:34,2.9,3,3,3,3.9,4
2016/12/22 4:35,2.8,2,2.9,3,5.1,3
2016/12/22 4:36,3,3,3,3,6.7,4
2016/12/22 4:37,3.1,3,3.1,3,6.3,4
2016/12/22 4:38,3.2,3,3.2,3,5,4
2016/12/22 4:39,3.2,3,3.2,3,4.3,3
2016/12/22 4:40,3.2,3,3.2,3,5,4
2016/12/22 4:41,3.2,3,3.2,3,5.5,3
2016/12/22 4:42,3.3,3,3.3,3,6.3,3
2016/12/22 4:43,3.4,3,3.4,3,5.7,3
2016/12/22 4:44,3.6,3,3.6,3,4.7,3
2016/12/22 4:45,3.7,3,3.7,3,4.9,3
2016/12/22 4:46,3.5,3,3.6,3,3.7,3
2016/12/22 4:47,3.4,3,3.4,3,3.8,3
2016/12/22 4:48,3.3,3,3.4,3,4.1,4
2016/12/22 4:49,3.3,3,3.4,3,4.3,3
2016/12/22 4:50,3.3,4,3.3,3,3.9,4
2016/12/22 4:51,3.2,3,3.3,3,4.4,4
2016/12/22 4:52,3,3,3.2,3,3.6,3
2016/12/22 4:53,2.8,3,3,3,3.7,3
2016/12/22 4:54,2.8,3,2.8,3,4.2,3
2016/12/22 4:55,2.7,3,2.7,3,4.3,3
2016/12/22 4:56,2.8,3,2.8,3,3.2,3
2016/12/22 4:57,2.7,3,2.8,3,3.5,5
2016/12/22 4:58,2.7,3,2.7,3,2.7,4
2016/12/22 4:59,2.5,3,2.6,3,2.2,2
2016/12/22 5:00,2.5,3,2.5,3,3,4
2016/12/22 5:01,2.4,3,2.5,3,5.1,4
2016/12/22 5:02,2.5,3,2.5,3,3.7,4
2016/12/22 5:03,2.5,3,2.5,3,4.7,3
2016/12/22 5:04,2.6,3,2.6,3,4.7,4
2016/12/22 5:05,2.5,3,2.6,3,3.2,4
2016/12/22 5:06,2.4,3,2.5,3,3.9,4
2016/12/22 5:07,2.5,4,2.5,3,5.7,4
2016/12/22 5:08,2.5,3,2.5,3,3.1,3
2016/12/22 5:09,2.6,3,2.6,3,5,2
2016/12/22 5:10,2.7,3,2.7,3,4.7,3
2016/12/22 5:11,2.6,3,2.7,3,4.2,4
2016/12/22 5:12,2.7,3,2.7,3,4.4,3
2016/12/22 5:13,2.5,4,2.7,3,2.9,4
2016/12/22 5:14,2.4,4,2.5,3,3.9,4
2016/12/22 5:15,2.5,4,2.5,3,4.4,2
2016/12/22 5:16,2.5,4,2.5,3,5.2,3
2016/12/22 5:17,2.5,4,2.5,3,4.8,5
2016/12/22 5:18,2.5,4,2.5,3,5.2,3
2016/12/22 5:19,2.5,4,2.5,3,4.3,2
2016/12/22 5:20,2.5,4,2.5,3,4.8,4
2016/12/22 5:21,2.6,4,2.6,3,4.1,3
2016/12/22 5:22,2.6,4,2.6,3,4.2,4
2016/12/22 5:23,2.7,4,2.7,4,5,3
2016/12/22 5:24,2.7,4,2.7,4,4.5,4
2016/12/22 5:25,2.8,4,2.8,4,4.3,3
2016/12/22 5:26,2.8,4,2.8,4,4.7,3
2016/12/22 5:27,2.8,3,2.8,4,3.7,3
2016/12/22 5:28,2.8,3,2.8,4,3.7,3
2016/12/22 5:29,2.8,3,2.8,4,4.9,3
2016/12/22 5:30,2.8,3,2.8,4,4.1,3
2016/12/22 5:31,2.8,3,2.8,4,4.7,3
2016/12/22 5:32,2.9,3,2.9,3,6.3,3
2016/12/22 5:33,2.9,3,2.9,3,4.5,6
2016/12/22 5:34,2.9,3,2.9,3,3.7,4
2016/12/22 5:35,3,3,3,3,5.8,3
2016/12/22 5:36,3,3,3,3,5.5,2
2016/12/22 5:37,3.1,3,3.1,3,5.1,5
2016/12/22 5:38,3.2,3,3.2,3,3.8,3
2016/12/22 5:39,3.2,3,3.2,3,4.7,2
2016/12/22 5:40,3.2,4,3.2,3,3.1,3
2016/12/22 5:41,3.1,3,3.2,3,5.1,3
2016/12/22 5:42,3,3,3.1,3,4.9,4
2016/12/22 5:43,3.1,3,3.1,3,5.1,3
2016/12/22 5:44,3.2,3,3.2,3,4.7,3
2016/12/22 5:45,3.1,3,3.2,3,3.7,4
2016/12/22 5:46,3.2,3,3.2,3,4.5,3
2016/12/22 5:47,3.2,3,3.2,3,5.6,3
2016/12/22 5:48,3.1,3,3.2,3,4.3,5
2016/12/22 5:49,3.1,3,3.1,3,4.2,2
2016/12/22 5:50,3.1,3,3.1,4,5.2,3
2016/12/22 5:51,3.2,3,3.2,3,4.1,3
2016/12/22 5:52,3.2,3,3.2,3,4.5,3
2016/12/22 5:53,3,3,3.1,3,4.4,3
2016/12/22 5:54,2.9,3,3,3,4.1,4
2016/12/22 5:55,2.9,3,2.9,3,4.3,3
2016/12/22 5:56,2.9,3,2.9,3,3.9,3
2016/12/22 5:57,2.7,3,2.9,3,4.2,4
2016/12/22 5:58,2.7,3,2.7,3,4.4,3
2016/12/22 5:59,2.6,3,2.6,3,3.8,2
2016/12/22 6:00,2.7,3,2.7,3,5.4,3
2016/12/22 6:01,2.7,3,2.7,3,4.1,3
2016/12/22 6:02,2.7,3,2.7,3,4.2,3
2016/12/22 6:03,2.7,3,2.7,3,3.7,4
2016/12/22 6:04,2.7,3,2.8,3,4.1,3
2016/12/22 6:05,2.7,3,2.8,3,3.6,4
2016/12/22 6:06,2.7,3,2.8,3,4.4,3
2016/12/22 6:07,2.9,3,2.9,3,4.9,3
2016/12/22 6:08,3,3,3,3,4.8,3
2016/12/22 6:09,3.1,3,3.1,3,5,5
2016/12/22 6:10,3,3,3.1,3,4.3,4
2016/12/22 6:11,3,3,3,3,5.2,3
2016/12/22 6:12,3,3,3,3,4.3,3
2016/12/22 6:13,3,3,3,3,4.4,3
2016/12/22 6:14,3,3,3,3,3.8,2
2016/12/22 6:15,3,3,3,3,3.9,3
2016/12/22 6:16,3,3,3,3,3.8,4
2016/12/22 6:17,2.9,3,3,3,3.2,4
2016/12/22 6:18,2.7,3,2.8,3,2.4,4
2016/12/22 6:19,2.7,3,2.7,3,5.4,3
2016/12/22 6:20,2.8,3,2.8,3,4.9,3
2016/12/22 6:21,2.8,3,2.8,3,5,3
2016/12/22 6:22,2.8,3,2.8,3,4.4,3
2016/12/22 6:23,2.8,3,2.8,3,3.9,3
2016/12/22 6:24,2.8,3,2.8,3,4.7,4
2016/12/22 6:25,2.7,3,2.8,3,3.9,4
2016/12/22 6:26,2.7,3,2.7,3,4.8,4
2016/12/22 6:27,2.8,3,2.8,3,5.1,4
2016/12/22 6:28,2.9,3,2.9,3,5.8,4
2016/12/22 6:29,3,3,3,3,5.7,3
2016/12/22 6:30,3,3,3,3,5.7,4
2016/12/22 6:31,3.1,3,3.1,3,5,3
2016/12/22 6:32,3.1,3,3.1,3,4.8,3
2016/12/22 6:33,3.2,3,3.2,3,5.4,3
2016/12/22 6:34,3.3,3,3.3,3,4.9,3
2016/12/22 6:35,3.4,3,3.4,3,5.2,3
2016/12/22 6:36,3.7,3,3.7,3,7.1,3
2016/12/22 6:37,3.6,3,3.6,3,5,4
2016/12/22 6:38,3.7,3,3.7,3,4.9,3
2016/12/22 6:39,3.7,3,3.8,3,5.7,5
2016/12/22 6:40,3.6,3,3.7,3,3.9,3
2016/12/22 6:41,3.5,4,3.5,3,3.9,5
2016/12/22 6:42,3.5,4,3.5,3,4.8,4
2016/12/22 6:43,3.4,4,3.5,3,4.5,3
2016/12/22 6:44,3.4,4,3.4,3,5.5,2
2016/12/22 6:45,3.3,4,3.4,3,4.7,3
2016/12/22 6:46,3.2,4,3.3,3,4.4,4
2016/12/22 6:47,3.2,4,3.2,3,5.1,4
2016/12/22 6:48,3.2,4,3.2,3,5.4,5
2016/12/22 6:49,3.1,4,3.2,3,4.5,4
2016/12/22 6:50,3,4,3.1,3,3.9,4
2016/12/22 6:51,2.9,4,3,4,2,2
2016/12/22 6:52,2.9,4,2.9,4,5.2,4
2016/12/22 6:53,2.9,4,2.9,4,4.5,5
2016/12/22 6:54,2.8,4,2.9,4,3.8,3
2016/12/22 6:55,2.8,4,2.8,4,4.4,4
2016/12/22 6:56,2.9,4,2.9,4,5,4
2016/12/22 6:57,2.9,4,2.9,4,6.1,4
2016/12/22 6:58,2.9,4,2.9,4,5,3
2016/12/22 6:59,3.1,4,3.1,4,6.8,4
2016/12/22 7:00,3.3,4,3.3,4,6.7,4
2016/12/22 7:01,3.6,4,3.6,4,6.1,4
2016/12/22 7:02,3.5,4,3.6,4,3.6,5
2016/12/22 7:03,3.4,4,3.6,4,3.9,3
2016/12/22 7:04,3.5,4,3.5,4,5,3
2016/12/22 7:05,3.5,4,3.5,4,4.8,3
2016/12/22 7:06,3.5,4,3.5,4,5.8,4
2016/12/22 7:07,3.5,4,3.5,4,4.2,5
2016/12/22 7:08,3.4,4,3.5,4,4.7,6
2016/12/22 7:09,3.1,4,3.4,4,3.9,2
2016/12/22 7:10,3,4,3.1,4,3.9,2
2016/12/22 7:11,2.8,4,3,4,3.7,3
2016/12/22 7:12,2.7,4,2.8,4,3.6,3
2016/12/22 7:13,2.7,4,2.8,4,3.8,3
2016/12/22 7:14,2.7,4,2.7,4,3.9,4
2016/12/22 7:15,2.7,4,2.7,4,4.1,3
2016/12/22 7:16,2.5,4,2.7,4,3.7,5
2016/12/22 7:17,2.6,4,2.6,4,6.7,5
2016/12/22 7:18,2.7,4,2.7,4,6.9,5
2016/12/22 7:19,2.7,4,2.7,4,3.8,4
2016/12/22 7:20,2.8,4,2.8,4,4.4,3
2016/12/22 7:21,2.9,4,2.9,4,4.7,3
2016/12/22 7:22,2.9,3,2.9,4,2.9,3
2016/12/22 7:23,3,3,3,3,5,4
2016/12/22 7:24,2.8,3,3,3,3,3
2016/12/22 7:25,2.8,3,2.8,3,3.2,3
2016/12/22 7:26,2.8,3,2.8,3,4.4,3
2016/12/22 7:27,2.8,3,2.8,3,5.5,3
2016/12/22 7:28,2.7,3,2.8,3,4.4,3
2016/12/22 7:29,2.7,3,2.7,3,6,2
2016/12/22 7:30,2.8,3,2.8,3,5.4,2
2016/12/22 7:31,2.8,3,2.8,3,5.8,3
2016/12/22 7:32,2.9,3,2.9,3,5,4
2016/12/22 7:33,2.9,3,2.9,3,4.8,3
2016/12/22 7:34,3,3,3,3,4.4,2
2016/12/22 7:35,3.1,3,3.1,3,5,4
2016/12/22 7:36,3.1,3,3.2,3,4.7,3
2016/12/22 7:37,3.1,3,3.2,3,5.5,4
2016/12/22 7:38,3.1,3,3.1,3,4.9,3
2016/12/22 7:39,3.3,3,3.3,3,5.6,3
2016/12/22 7:40,3.3,3,3.3,3,6,4
2016/12/22 7:41,3.3,3,3.3,3,5.7,4
2016/12/22 7:42,3.2,3,3.3,3,4.4,3
2016/12/22 7:43,3.2,3,3.3,3,4.9,1
2016/12/22 7:44,3.3,3,3.4,3,6.3,3
2016/12/22 7:45,3.3,3,3.4,3,6.3,4
2016/12/22 7:46,3.6,3,3.6,3,8.9,3
2016/12/22 7:47,3.7,3,3.7,3,7,4
2016/12/22 7:48,3.8,3,3.8,3,5.5,3
2016/12/22 7:49,3.9,3,3.9,3,5.7,3
2016/12/22 7:50,3.8,3,3.8,3,4.4,6
2016/12/22 7:51,3.8,3,3.8,3,7.9,3
2016/12/22 7:52,3.8,3,3.8,3,4.9,5
2016/12/22 7:53,4,3,4,3,7.4,3
2016/12/22 7:54,4.1,4,4.1,4,5.6,3
2016/12/22 7:55,4.1,4,4.1,4,6.8,3
2016/12/22 7:56,4,4,4.1,4,6.8,3
2016/12/22 7:57,3.8,4,4,4,5.2,4
2016/12/22 7:58,3.8,4,3.8,4,4.5,2
2016/12/22 7:59,3.6,4,3.8,4,4.3,4
2016/12/22 8:00,3.6,3,3.6,4,5.1,3
2016/12/22 8:01,3.5,3,3.7,4,5.1,3
2016/12/22 8:02,3.6,3,3.6,4,6.3,2
2016/12/22 8:03,3.4,3,3.6,4,6,3
2016/12/22 8:04,3.3,3,3.4,4,5.5,3
2016/12/22 8:05,3.4,3,3.4,4,7.9,3
2016/12/22 8:06,3.4,3,3.4,4,7.5,4
2016/12/22 8:07,3.3,3,3.4,4,3.6,4
2016/12/22 8:08,3.4,3,3.4,4,6.4,4
2016/12/22 8:09,3.6,3,3.6,3,6.8,4
2016/12/22 8:10,3.5,3,3.6,3,4.5,3
2016/12/22 8:11,3.6,3,3.6,3,3.6,3
2016/12/22 8:12,3.5,3,3.6,3,5.1,2
2016/12/22 8:13,3.5,4,3.5,3,4.7,4
2016/12/22 8:14,3.5,4,3.6,3,4.8,5
2016/12/22 8:15,3.5,4,3.5,3,5,4
2016/12/22 8:16,3.4,4,3.4,3,5.4,4
2016/12/22 8:17,3.6,4,3.6,3,6.9,3
2016/12/22 8:18,3.6,4,3.6,3,6.2,3
2016/12/22 8:19,3.5,4,3.6,3,5.4,3
2016/12/22 8:20,3.7,4,3.7,4,5.4,3
2016/12/22 8:21,3.7,4,3.7,4,4.2,4
2016/12/22 8:22,3.5,4,3.7,4,3.5,2
2016/12/22 8:23,3.6,4,3.6,4,5.4,3
2016/12/22 8:24,3.7,4,3.7,4,5.4,3
2016/12/22 8:25,3.6,4,3.7,4,4.8,2
2016/12/22 8:26,3.5,3,3.6,4,4.5,4
2016/12/22 8:27,3.4,4,3.5,4,4.2,4
2016/12/22 8:28,3.3,4,3.4,4,5.5,3
2016/12/22 8:29,3.3,4,3.3,4,6.9,3
2016/12/22 8:30,3.3,4,3.3,4,5.2,3
2016/12/22 8:31,3.5,4,3.5,4,6.1,3
2016/12/22 8:32,3.5,4,3.5,4,5.1,3
2016/12/22 8:33,3.5,4,3.6,4,4.9,3
2016/12/22 8:34,3.4,4,3.5,4,4.4,4
2016/12/22 8:35,3.4,4,3.4,4,4.2,5
2016/12/22 8:36,3.2,4,3.4,4,3.2,5
2016/12/22 8:37,3.3,3,3.3,4,4.2,4
2016/12/22 8:38,3.2,3,3.3,4,4.3,3
2016/12/22 8:39,3.1,3,3.2,4,4.7,4
2016/12/22 8:40,3,4,3.2,4,4.3,5
2016/12/22 8:41,2.8,4,3,4,3.3,5
2016/12/22 8:42,2.7,4,2.8,4,4.1,4
2016/12/22 8:43,2.6,4,2.7,4,3.3,5
2016/12/22 8:44,2.6,4,2.6,4,4.7,5
2016/12/22 8:45,2.6,4,2.6,4,4.7,4
2016/12/22 8:46,2.7,4,2.7,4,4.3,3
2016/12/22 8:47,2.8,4,2.8,3,4.4,3
2016/12/22 8:48,2.8,4,2.8,3,4.2,2
2016/12/22 8:49,2.7,4,2.8,3,4.1,3
2016/12/22 8:50,2.8,4,2.8,4,4.7,4
2016/12/22 8:51,2.9,4,2.9,4,4.9,5
2016/12/22 8:52,2.9,4,2.9,4,3.9,3
2016/12/22 8:53,3,4,3,4,4.2,4
2016/12/22 8:54,3.1,4,3.1,4,5,3
2016/12/22 8:55,3,4,3.1,4,3.6,4
2016/12/22 8:56,2.9,4,3,4,3.5,2
2016/12/22 8:57,2.9,4,2.9,4,4.7,4
2016/12/22 8:58,2.9,4,2.9,4,3.9,5
2016/12/22 8:59,2.8,4,2.9,4,3.7,5
2016/12/22 9:00,2.7,4,2.8,4,3.3,3
2016/12/22 9:01,2.6,4,2.7,4,3.6,4
2016/12/22 9:02,2.5,4,2.6,4,4.3,4
2016/12/22 9:03,2.4,4,2.5,4,4.1,5
2016/12/22 9:04,2.4,4,2.5,4,4.3,3
2016/12/22 9:05,2.5,4,2.5,4,4.4,5
2016/12/22 9:06,2.5,4,2.5,4,4.3,5
2016/12/22 9:07,2.5,4,2.5,4,4.2,4
2016/12/22 9:08,2.4,4,2.5,4,3.5,4
2016/12/22 9:09,2.5,4,2.5,4,3.9,4
2016/12/22 9:10,2.6,4,2.6,4,4.8,5
2016/12/22 9:11,2.7,5,2.7,4,4.4,5
2016/12/22 9:12,2.7,5,2.7,4,3.3,5
2016/12/22 9:13,2.7,5,2.7,4,4.3,3
2016/12/22 9:14,2.7,5,2.7,4,3.8,5
2016/12/22 9:15,2.6,5,2.7,4,3.9,5
2016/12/22 9:16,2.6,4,2.6,4,3.2,6
2016/12/22 9:17,2.6,4,2.6,4,3.8,5
2016/12/22 9:18,2.6,4,2.6,4,3.2,4
2016/12/22 9:19,2.7,4,2.7,4,5,3
2016/12/22 9:20,2.6,4,2.7,4,3.7,4
2016/12/22 9:21,2.5,4,2.6,5,3.1,5
2016/12/22 9:22,2.5,4,2.5,5,3.9,4
2016/12/22 9:23,2.5,4,2.5,5,5.1,4
2016/12/22 9:24,2.5,4,2.5,5,4.2,5
2016/12/22 9:25,2.5,4,2.6,4,3.5,6
2016/12/22 9:26,2.5,4,2.5,4,2,5
2016/12/22 9:27,2.4,4,2.5,4,3.2,4
2016/12/22 9:28,2.4,4,2.4,4,3.8,3
2016/12/22 9:29,2.4,4,2.4,4,3.9,3
2016/12/22 9:30,2.4,4,2.4,4,4.2,3
2016/12/22 9:31,2.3,4,2.4,4,2.2,5
2016/12/22 9:32,2.3,4,2.3,4,3.7,4
2016/12/22 9:33,2.2,4,2.3,4,3.1,5
2016/12/22 9:34,2.1,4,2.2,4,3.9,4
2016/12/22 9:35,2.1,4,2.1,4,2.7,1
2016/12/22 9:36,2.1,4,2.1,4,3.3,5
2016/12/22 9:37,2.1,4,2.1,4,2.4,3
2016/12/22 9:38,2.1,4,2.1,4,3.7,6
2016/12/22 9:39,2.1,4,2.2,4,3.7,4
2016/12/22 9:40,2,4,2.1,4,3,4
2016/12/22 9:41,2.1,4,2.1,4,3,4
2016/12/22 9:42,2.1,4,2.1,4,3.2,3
2016/12/22 9:43,2.2,4,2.2,4,4.8,4
2016/12/22 9:44,2.2,4,2.2,4,4.1,5
2016/12/22 9:45,2.2,4,2.2,4,2.7,2
2016/12/22 9:46,2.3,4,2.3,4,3.8,4
2016/12/22 9:47,2.2,4,2.3,4,2,5
2016/12/22 9:48,2.2,4,2.2,4,3.5,3
2016/12/22 9:49,2.1,4,2.2,4,1.9,5
2016/12/22 9:50,2,4,2.1,4,1.6,3
2016/12/22 9:51,2,4,2,4,3,4
2016/12/22 9:52,2,4,2,4,5.4,4
2016/12/22 9:53,2.1,4,2.1,4,5,5
2016/12/22 9:54,2.2,4,2.2,4,6.1,5
2016/12/22 9:55,2.4,4,2.4,4,6,4
2016/12/22 9:56,2.5,4,2.5,4,5.1,5
2016/12/22 9:57,2.5,4,2.5,4,2.7,4
2016/12/22 9:58,2.4,4,2.5,4,2.4,5
2016/12/22 9:59,2.6,4,2.6,4,4.4,4
2016/12/22 10:00,2.8,5,2.8,5,5,5
2016/12/22 10:01,2.9,5,2.9,5,5,4
2016/12/22 10:02,2.9,5,2.9,5,5.1,5
2016/12/22 10:03,2.9,5,2.9,5,4.9,5
2016/12/22 10:04,2.8,5,2.9,5,4.2,4
2016/12/22 10:05,2.6,5,2.7,5,3.2,6
2016/12/22 10:06,2.4,5,2.5,5,2.7,5
2016/12/22 10:07,2.5,5,2.5,5,5,3
2016/12/22 10:08,2.6,5,2.7,5,4.5,4
2016/12/22 10:09,2.6,5,2.6,5,2.9,6
2016/12/22 10:10,2.5,5,2.6,5,3.8,4
2016/12/22 10:11,2.4,5,2.5,5,4.1,5
2016/12/22 10:12,2.3,5,2.4,5,3.5,3
2016/12/22 10:13,2.2,5,2.3,5,3.6,4
2016/12/22 10:14,2.2,4,2.2,5,3.7,5
2016/12/22 10:15,2.1,4,2.2,5,2.9,5
2016/12/22 10:16,2.3,4,2.3,5,4.4,5
2016/12/22 10:17,2.3,4,2.3,5,3.1,5
2016/12/22 10:18,2.4,5,2.4,5,5.6,5
2016/12/22 10:19,2.4,4,2.4,5,3,5
2016/12/22 10:20,2.4,4,2.4,5,3.2,5
2016/12/22 10:21,2.5,5,2.5,4,5.6,5
2016/12/22 10:22,2.6,5,2.6,5,3.8,5
2016/12/22 10:23,2.6,5,2.6,5,3.3,4
2016/12/22 10:24,2.6,5,2.6,5,5,4
2016/12/22 10:25,2.8,5,2.8,5,4.8,5
2016/12/22 10:26,2.6,5,2.7,5,3.3,4
2016/12/22 10:27,2.6,5,2.6,5,3.8,4
2016/12/22 10:28,2.5,5,2.7,5,5.1,6
2016/12/22 10:29,2.5,5,2.5,5,2.2,3
2016/12/22 10:30,2.4,5,2.5,5,2.5,4
2016/12/22 10:31,2.2,4,2.4,5,2.5,3
2016/12/22 10:32,2.2,4,2.2,5,4.5,4
2016/12/22 10:33,2.2,4,2.3,5,5.5,7
2016/12/22 10:34,2.2,5,2.2,5,4.1,5
2016/12/22 10:35,2.2,5,2.2,5,4.2,3
2016/12/22 10:36,2.4,5,2.4,5,4.9,2
2016/12/22 10:37,2.4,5,2.4,5,3.7,6
2016/12/22 10:38,2.4,5,2.4,5,3.9,6
2016/12/22 10:39,2.5,5,2.5,5,3.9,7
2016/12/22 10:40,2.6,5,2.6,5,4.4,5
2016/12/22 10:41,2.7,5,2.7,5,5.1,5
2016/12/22 10:42,2.8,5,2.8,5,4.4,5
2016/12/22 10:43,2.7,5,2.8,5,3.7,5
2016/12/22 10:44,2.8,5,2.8,5,4.9,4
2016/12/22 10:45,2.7,5,2.8,5,4.1,5
2016/12/22 10:46,2.6,5,2.7,5,3.5,7
2016/12/22 10:47,2.6,5,2.6,5,4.2,4
2016/12/22 10:48,2.6,5,2.6,5,4.3,4
2016/12/22 10:49,2.6,5,2.6,5,5.2,5
2016/12/22 10:50,2.6,5,2.6,5,3.1,3
2016/12/22 10:51,2.6,5,2.6,5,4.3,4
2016/12/22 10:52,2.5,5,2.5,5,4.3,6
2016/12/22 10:53,2.7,5,2.7,5,6.8,6
2016/12/22 10:54,2.9,5,2.9,5,8.1,6
2016/12/22 10:55,2.8,5,2.9,5,4.2,7
2016/12/22 10:56,2.9,5,2.9,5,5.8,6
2016/12/22 10:57,3,6,3,5,7.6,7
2016/12/22 10:58,3.1,6,3.1,6,5.4,5
2016/12/22 10:59,3.2,6,3.2,6,4.3,6
2016/12/22 11:00,3.2,6,3.2,6,4.2,6
2016/12/22 11:01,3.1,6,3.2,6,4.4,6
2016/12/22 11:02,3,6,3.1,6,3.8,5
2016/12/22 11:03,3,6,3.1,6,5.6,6
2016/12/22 11:04,2.8,6,3,6,4.3,6
2016/12/22 11:05,2.9,6,2.9,6,4.5,6
2016/12/22 11:06,2.8,6,2.9,6,3.7,8
2016/12/22 11:07,2.5,6,2.7,6,3.7,7
2016/12/22 11:08,2.5,6,2.5,6,3.5,6
2016/12/22 11:09,2.5,6,2.5,6,6.5,6
2016/12/22 11:10,2.6,6,2.6,6,4.3,5
2016/12/22 11:11,2.5,6,2.6,6,3.5,7
2016/12/22 11:12,2.6,6,2.6,6,3.9,6
2016/12/22 11:13,2.5,6,2.6,6,3.7,7
2016/12/22 11:14,2.3,6,2.5,6,2.1,6
2016/12/22 11:15,2.2,6,2.3,6,3.9,6
2016/12/22 11:16,2.3,6,2.3,6,3.2,5
2016/12/22 11:17,2.4,6,2.4,6,4.9,6
2016/12/22 11:18,2.4,6,2.4,6,3.7,6
2016/12/22 11:19,2.3,6,2.4,6,3.8,5
2016/12/22 11:20,2.3,6,2.3,6,7.5,7
2016/12/22 11:21,2.5,6,2.5,6,6.5,7
2016/12/22 11:22,2.5,6,2.5,6,3.5,6
2016/12/22 11:23,2.6,6,2.6,6,4.7,6
2016/12/22 11:24,2.7,6,2.7,6,4.8,6
2016/12/22 11:25,2.7,6,2.7,6,3,9
2016/12/22 11:26,2.6,6,2.7,6,2.7,6
2016/12/22 11:27,2.5,6,2.6,6,3.6,5
2016/12/22 11:28,2.5,6,2.5,6,4.5,6